Find Starlink 31896

NORAD ID: 59851 Int'l Des: 2024-097 Owner: SPXS Country: US Constellation: starlink operational
LEOCIRCULAR

Current View

Loading 3D Globe...

About Starlink 31896

Starlink 31896 (NORAD 59851) is a starlink constellation satellite (v2 mini) launched May 23, 2024 by SPXS of US. It operates in LEO, CIRCULAR orbit with a mass of 730.00 kg.

About Starlink 31896

Description loading...

Upcoming Passes

Passes for default location (London). Set your location on the main map for personalized predictions.

Altitude History

Loading altitude history...

Two-Line Element Set

1 59851U 24097S 26166.48584753 -.00001369 00000-0 -40278-4 0 9991
2 59851 42.9942 82.0430 0000690 108.0007 252.0919 15.27559751116876
Epoch: Jun 15, 2026 • Age: 49 hours

Current Status

Altitude 483.0 km
Velocity 7.63 km/s
Sub-Earth Point -2.27°S, 150.42°E
Launch Date May 23, 2024
Age 2 years
Type internet

Technical Details

Classification Payload
Mass 730.00 kg
Dry Mass 700.00 kg
Total Mass 730.00 kg
Length 0.30 m
Diameter 4.10 m
Span 29.00 m
Shape Box + pan
Manufacturer SPXS
Bus Type Starlink V2M
Phase Status In Orbit
Owner/State SPXS/US

Most Searched